Location: Edinburgh
(55.9500°N, 3.1600°W)
Time: 11:32:19
(UTC+00:00)

Envisat - Pass Details

Date: 22 February 2019
Orbit: 764 x 766 km, 98.2° (Epoch: 24 March)

Event Time Altitude Azimuth Distance (km) Brightness Sun altitude
Rises 19:19:15 0° 186° (S) 3,225 6.2 -15.8°
Reaches altitude 10° 19:21:41 10° 193° (SSW) 2,303 5.6 -16.1°
Maximum altitude 19:26:28 40° 263° (W) 1,117 4.4 -16.8°
Drops below altitude 10° 19:31:17 10° 334° (NNW) 2,318 5.9 -17.4°
Sets 19:33:44 0° 341° (NNW) 3,249 6.6 -17.8°
